Time,TemperatureF,DewpointF,PressureIn,WindDirection,WindDirectionDegrees,WindSpeedMPH,WindSpeedGustMPH,Humidity,HourlyPrecipIn,Conditions,Clouds,dailyrainin,SoftwareType,DateUTC
2013-02-27 00:13:00,39.6,34.0,29.72,WNW,290,1.0,5.0,80,0.00,,,0.00,weatherlink.com 1.10,2013-02-27 05:13:00,
2013-02-27 00:28:00,40.1,34.0,29.72,NNW,328,3.0,8.0,79,0.00,,,0.00,weatherlink.com 1.10,2013-02-27 05:28:00,
2013-02-27 00:43:00,40.1,34.0,29.72,WNW,297,0.0,3.0,78,0.00,,,0.00,weatherlink.com 1.10,2013-02-27 05:43:00,
2013-02-27 00:58:00,40.2,33.0,29.72,NNW,331,3.0,8.0,76,0.00,,,0.00,weatherlink.com 1.10,2013-02-27 05:58:00,
2013-02-27 01:13:00,40.4,33.0,29.72,NW,318,1.0,5.0,74,0.00,,,0.00,weatherlink.com 1.10,2013-02-27 06:13:00,
2013-02-27 01:28:00,40.1,33.0,29.72,NW,313,1.0,6.0,75,0.00,,,0.00,weatherlink.com 1.10,2013-02-27 06:28:00,
2013-02-27 01:43:00,39.9,33.0,29.72,West,278,2.0,8.0,76,0.00,,,0.00,weatherlink.com 1.10,2013-02-27 06:43:00,
2013-02-27 01:58:00,39.6,33.0,29.73,West,280,2.0,3.0,77,0.00,,,0.00,weatherlink.com 1.10,2013-02-27 06:58:00,
2013-02-27 02:13:00,39.5,33.0,29.73,NW,320,1.0,4.0,77,0.00,,,0.00,weatherlink.com 1.10,2013-02-27 07:13:00,
2013-02-27 02:28:00,39.2,33.0,29.73,NW,307,0.0,4.0,77,0.00,,,0.00,weatherlink.com 1.10,2013-02-27 07:28:00,
2013-02-27 02:43:00,39.3,32.0,29.73,West,276,0.0,8.0,75,0.00,,,0.00,weatherlink.com 1.10,2013-02-27 07:43:00,
2013-02-27 02:58:00,39.4,32.0,29.73,West,280,0.0,5.0,75,0.00,,,0.00,weatherlink.com 1.10,2013-02-27 07:58:00,
2013-02-27 03:13:00,39.3,32.0,29.73,SW,231,1.0,5.0,75,0.00,,,0.00,weatherlink.com 1.10,2013-02-27 08:13:00,
2013-02-27 03:28:00,39.1,31.0,29.73,West,271,1.0,7.0,74,0.00,,,0.00,weatherlink.com 1.10,2013-02-27 08:28:00,
2013-02-27 03:43:00,38.6,31.0,29.73,West,281,1.0,6.0,75,0.00,,,0.00,weatherlink.com 1.10,2013-02-27 08:43:00,
2013-02-27 03:58:00,37.9,32.0,29.73,SSW,208,0.0,4.0,78,0.00,,,0.00,weatherlink.com 1.10,2013-02-27 08:58:00,
2013-02-27 04:13:00,37.5,31.0,29.74,NW,304,2.0,8.0,78,0.00,,,0.00,weatherlink.com 1.10,2013-02-27 09:13:00,
2013-02-27 04:28:00,37.5,31.0,29.74,West,266,1.0,7.0,78,0.00,,,0.00,weatherlink.com 1.10,2013-02-27 09:28:00,
2013-02-27 04:43:00,36.9,31.0,29.74,West,273,0.0,3.0,79,0.00,,,0.00,weatherlink.com 1.10,2013-02-27 09:43:00,
2013-02-27 04:58:00,36.6,31.0,29.75,WSW,238,0.0,1.0,79,0.00,,,0.00,weatherlink.com 1.10,2013-02-27 09:58:00,
2013-02-27 05:13:00,35.4,31.0,29.76,West,264,0.0,1.0,83,0.00,,,0.00,weatherlink.com 1.10,2013-02-27 10:13:00,
2013-02-27 05:28:00,34.5,30.0,29.76,West,277,0.0,1.0,84,0.00,,,0.00,weatherlink.com 1.10,2013-02-27 10:28:00,
2013-02-27 05:43:00,36.0,30.0,29.76,SE,124,0.0,5.0,79,0.00,,,0.00,weatherlink.com 1.10,2013-02-27 10:43:00,
2013-02-27 05:58:00,33.9,31.0,29.77,North,351,0.0,2.0,87,0.00,,,0.00,weatherlink.com 1.10,2013-02-27 10:58:00,
2013-02-27 06:13:00,32.3,30.0,29.77,North,11,0.0,1.0,90,0.00,,,0.00,weatherlink.com 1.10,2013-02-27 11:13:00,
2013-02-27 06:28:00,31.2,29.0,29.78,WNW,285,0.0,1.0,92,0.00,,,0.00,weatherlink.com 1.10,2013-02-27 11:28:00,
2013-02-27 06:44:00,30.3,29.0,29.78,WSW,241,0.0,1.0,93,0.00,,,0.00,weatherlink.com 1.10,2013-02-27 11:44:00,
2013-02-27 06:59:00,29.7,28.0,29.78,SE,131,0.0,1.0,94,0.00,,,0.00,weatherlink.com 1.10,2013-02-27 11:59:00,
2013-02-27 07:14:00,29.5,28.0,29.79,SE,131,0.0,1.0,95,0.00,,,0.00,weatherlink.com 1.10,2013-02-27 12:14:00,
2013-02-27 07:29:00,29.3,28.0,29.80,SE,131,0.0,1.0,96,0.00,,,0.00,weatherlink.com 1.10,2013-02-27 12:29:00,
2013-02-27 07:44:00,29.4,28.0,29.82,SE,131,0.0,1.0,96,0.00,,,0.00,weatherlink.com 1.10,2013-02-27 12:44:00,
2013-02-27 07:59:00,30.5,30.0,29.82,ESE,103,0.0,1.0,97,0.00,,,0.00,weatherlink.com 1.10,2013-02-27 12:59:00,
2013-02-27 08:14:00,33.3,32.0,29.82,ESE,105,0.0,1.0,95,0.00,,,0.00,weatherlink.com 1.10,2013-02-27 13:14:00,
2013-02-27 08:29:00,36.6,34.0,29.82,ESE,120,0.0,1.0,89,0.00,,,0.00,weatherlink.com 1.10,2013-02-27 13:29:00,
2013-02-27 08:44:00,38.0,35.0,29.83,WNW,282,0.0,2.0,87,0.00,,,0.00,weatherlink.com 1.10,2013-02-27 13:44:00,
2013-02-27 08:59:00,40.8,38.0,29.83,WNW,298,0.0,2.0,90,0.00,,,0.00,weatherlink.com 1.10,2013-02-27 13:59:00,
2013-02-27 09:14:00,41.1,35.0,29.83,SE,146,0.0,1.0,79,0.00,,,0.00,weatherlink.com 1.10,2013-02-27 14:14:00,
2013-02-27 09:29:00,43.3,35.0,29.84,ENE,75,0.0,2.0,73,0.00,,,0.00,weatherlink.com 1.10,2013-02-27 14:29:00,
2013-02-27 09:44:00,43.0,33.0,29.84,West,280,1.0,2.0,68,0.00,,,0.00,weatherlink.com 1.10,2013-02-27 14:44:00,
2013-02-27 09:59:00,43.7,36.0,29.85,ESE,113,1.0,3.0,73,0.00,,,0.00,weatherlink.com 1.10,2013-02-27 14:59:00,
2013-02-27 10:14:00,44.9,34.0,29.84,NE,37,2.0,3.0,65,0.00,,,0.00,weatherlink.com 1.10,2013-02-27 15:14:00,
2013-02-27 10:29:00,44.9,35.0,29.84,WSW,256,2.0,6.0,68,0.00,,,0.00,weatherlink.com 1.10,2013-02-27 15:29:00,
2013-02-27 10:44:00,46.3,36.0,29.84,NE,39,2.0,5.0,68,0.00,,,0.00,weatherlink.com 1.10,2013-02-27 15:44:00,
2013-02-27 10:59:00,48.8,36.0,29.84,West,278,2.0,4.0,61,0.00,,,0.00,weatherlink.com 1.10,2013-02-27 15:59:00,
2013-02-27 11:14:00,49.2,36.0,29.84,SSE,153,2.0,4.0,61,0.00,,,0.00,weatherlink.com 1.10,2013-02-27 16:14:00,
2013-02-27 11:29:00,50.3,37.0,29.84,NE,34,1.0,4.0,60,0.00,,,0.00,weatherlink.com 1.10,2013-02-27 16:29:00,
2013-02-27 11:44:00,50.9,34.0,29.84,WNW,303,1.0,7.0,52,0.00,,,0.00,weatherlink.com 1.10,2013-02-27 16:44:00,
2013-02-27 11:59:00,51.2,33.0,29.83,West,264,6.0,9.0,51,0.00,,,0.00,weatherlink.com 1.10,2013-02-27 16:59:00,
2013-02-27 12:14:00,52.1,36.0,29.82,NW,322,0.0,6.0,54,0.00,,,0.00,weatherlink.com 1.10,2013-02-27 17:14:00,
2013-02-27 12:29:00,52.2,36.0,29.82,SW,215,2.0,7.0,54,0.00,,,0.00,weatherlink.com 1.10,2013-02-27 17:29:00,
2013-02-27 12:44:00,52.5,36.0,29.81,West,262,7.0,10.0,54,0.00,,,0.00,weatherlink.com 1.10,2013-02-27 17:44:00,
2013-02-27 12:59:00,53.4,36.0,29.81,WNW,297,3.0,10.0,53,0.00,,,0.00,weatherlink.com 1.10,2013-02-27 17:59:00,
2013-02-27 13:14:00,52.6,37.0,29.81,WSW,243,3.0,11.0,55,0.00,,,0.00,weatherlink.com 1.10,2013-02-27 18:14:00,
2013-02-27 13:29:00,53.2,37.0,29.80,NNW,330,6.0,13.0,54,0.00,,,0.00,weatherlink.com 1.10,2013-02-27 18:29:00,
2013-02-27 13:44:00,53.3,37.0,29.80,WNW,296,6.0,10.0,54,0.00,,,0.00,weatherlink.com 1.10,2013-02-27 18:44:00,
2013-02-27 13:59:00,53.6,37.0,29.80,WSW,253,6.0,12.0,53,0.00,,,0.00,weatherlink.com 1.10,2013-02-27 18:59:00,
2013-02-27 14:14:00,53.7,37.0,29.80,West,269,4.0,11.0,53,0.00,,,0.00,weatherlink.com 1.10,2013-02-27 19:14:00,
2013-02-27 14:30:00,54.2,36.0,29.79,ESE,103,3.0,10.0,50,0.00,,,0.00,weatherlink.com 1.10,2013-02-27 19:30:00,
2013-02-27 14:45:00,54.7,37.0,29.79,WNW,297,3.0,8.0,51,0.00,,,0.00,weatherlink.com 1.10,2013-02-27 19:45:00,
2013-02-27 15:00:00,55.5,37.0,29.79,NNW,330,5.0,11.0,51,0.00,,,0.00,weatherlink.com 1.10,2013-02-27 20:00:00,
2013-02-27 15:15:00,56.1,36.0,29.79,SW,235,2.0,7.0,48,0.00,,,0.00,weatherlink.com 1.10,2013-02-27 20:15:00,
2013-02-27 15:30:00,56.2,36.0,29.79,WNW,302,3.0,8.0,47,0.00,,,0.00,weatherlink.com 1.10,2013-02-27 20:30:00,
2013-02-27 15:45:00,56.4,36.0,29.79,WSW,256,3.0,8.0,46,0.00,,,0.00,weatherlink.com 1.10,2013-02-27 20:45:00,
2013-02-27 16:00:00,57.2,35.0,29.78,SW,221,2.0,11.0,43,0.00,,,0.00,weatherlink.com 1.10,2013-02-27 21:00:00,
2013-02-27 16:15:00,57.5,33.0,29.78,NW,309,2.0,8.0,40,0.00,,,0.00,weatherlink.com 1.10,2013-02-27 21:15:00,
2013-02-27 16:30:00,57.4,32.0,29.78,WSW,248,3.0,8.0,39,0.00,,,0.00,weatherlink.com 1.10,2013-02-27 21:30:00,
2013-02-27 16:45:00,57.4,28.0,29.78,SW,219,2.0,6.0,33,0.00,,,0.00,weatherlink.com 1.10,2013-02-27 21:45:00,
2013-02-27 17:00:00,56.3,27.0,29.78,SW,232,3.0,8.0,33,0.00,,,0.00,weatherlink.com 1.10,2013-02-27 22:00:00,
2013-02-27 17:15:00,55.2,26.0,29.78,NW,304,2.0,9.0,33,0.00,,,0.00,weatherlink.com 1.10,2013-02-27 22:15:00,
2013-02-27 17:30:00,53.9,27.0,29.79,West,260,2.0,10.0,35,0.00,,,0.00,weatherlink.com 1.10,2013-02-27 22:30:00,
2013-02-27 17:45:00,53.0,27.0,29.80,WNW,290,6.0,8.0,37,0.00,,,0.00,weatherlink.com 1.10,2013-02-27 22:45:00,
2013-02-27 18:00:00,52.1,28.0,29.80,WSW,240,0.0,5.0,39,0.00,,,0.00,weatherlink.com 1.10,2013-02-27 23:00:00,
2013-02-27 18:15:00,50.9,28.0,29.80,WNW,295,1.0,6.0,41,0.00,,,0.00,weatherlink.com 1.10,2013-02-27 23:15:00,
2013-02-27 18:30:00,50.1,28.0,29.81,West,278,1.0,3.0,43,0.00,,,0.00,weatherlink.com 1.10,2013-02-27 23:30:00,
2013-02-27 18:45:00,48.9,28.0,29.82,West,278,1.0,4.0,45,0.00,,,0.00,weatherlink.com 1.10,2013-02-27 23:45:00,
2013-02-27 19:00:00,48.5,29.0,29.82,NW,305,0.0,5.0,47,0.00,,,0.00,weatherlink.com 1.10,2013-02-28 00:00:00,
2013-02-27 19:15:00,48.4,30.0,29.82,WSW,253,3.0,9.0,49,0.00,,,0.00,weatherlink.com 1.10,2013-02-28 00:15:00,
2013-02-27 19:30:00,47.9,30.0,29.82,WNW,291,1.0,6.0,51,0.00,,,0.00,weatherlink.com 1.10,2013-02-28 00:30:00,
2013-02-27 19:45:00,47.6,31.0,29.82,North,8,4.0,5.0,52,0.00,,,0.00,weatherlink.com 1.10,2013-02-28 00:45:00,
2013-02-27 20:00:00,47.5,32.0,29.84,SW,229,2.0,6.0,55,0.00,,,0.00,weatherlink.com 1.10,2013-02-28 01:00:00,
2013-02-27 20:15:00,47.0,32.0,29.84,West,260,1.0,4.0,56,0.00,,,0.00,weatherlink.com 1.10,2013-02-28 01:15:00,
2013-02-27 20:30:00,46.4,33.0,29.83,NW,317,2.0,8.0,59,0.00,,,0.00,weatherlink.com 1.10,2013-02-28 01:30:00,
2013-02-27 20:45:00,45.7,33.0,29.83,SW,233,2.0,6.0,61,0.00,,,0.00,weatherlink.com 1.10,2013-02-28 01:45:00,
2013-02-27 21:00:00,45.4,33.0,29.83,NW,323,6.0,8.0,62,0.00,,,0.00,weatherlink.com 1.10,2013-02-28 02:00:00,
2013-02-27 21:15:00,45.3,33.0,29.83,WNW,282,1.0,6.0,63,0.00,,,0.00,weatherlink.com 1.10,2013-02-28 02:15:00,
2013-02-27 21:30:00,45.1,33.0,29.84,West,264,1.0,6.0,62,0.00,,,0.00,weatherlink.com 1.10,2013-02-28 02:30:00,
2013-02-27 21:45:00,44.7,33.0,29.84,WNW,295,3.0,6.0,63,0.00,,,0.00,weatherlink.com 1.10,2013-02-28 02:45:00,
2013-02-27 22:00:00,44.2,33.0,29.84,WSW,245,0.0,4.0,65,0.00,,,0.00,weatherlink.com 1.10,2013-02-28 03:00:00,
2013-02-27 22:15:00,43.7,33.0,29.83,West,267,1.0,4.0,66,0.00,,,0.00,weatherlink.com 1.10,2013-02-28 03:15:00,
2013-02-27 22:30:00,42.9,33.0,29.83,West,278,1.0,3.0,68,0.00,,,0.00,weatherlink.com 1.10,2013-02-28 03:30:00,
2013-02-27 22:45:00,42.3,33.0,29.83,WNW,285,2.0,3.0,69,0.00,,,0.00,weatherlink.com 1.10,2013-02-28 03:45:00,
2013-02-27 23:00:00,42.9,32.0,29.83,SW,229,2.0,7.0,65,0.00,,,0.00,weatherlink.com 1.10,2013-02-28 04:00:00,
2013-02-27 23:30:00,42.2,32.0,29.84,WSW,257,2.0,6.0,67,0.00,,,0.00,weatherlink.com 1.10,2013-02-28 04:30:00,
2013-02-27 23:45:00,41.1,32.0,29.83,WNW,290,0.0,2.0,69,0.00,,,0.00,weatherlink.com 1.10,2013-02-28 04:45:00,